Retour au catalogue

HXMT

ActifScienceVLEO
NORAD 42758·PAYLOAD·🇨🇳 China

Lancé Jun 15, 2017 depuis Jiuquan Satellite Launch Center

Loading…

Prochains Passages (prochaines 24 heures)

TLE

FraisSource: Space-Track

Époque: Sep 14, 2026, 15:21 UTC

1 42758U 17034A   26257.63974677  .00003662  00000-0  18044-3 0  9999
2 42758  43.0151  44.6895 0031616 350.4307   9.5937 15.19128918511260

Suivez HXMT en temps réel avec AllMySat

Download on the App Store